Powrót do katalogu

FLOCK 4BE 1

AktywnyNaukaSSO
NORAD 60518·PAYLOAD·🇺🇸 United States

Wystrzelony Aug 16, 2024 z Vandenberg Space Force Base

Loading…

Następne Przeloty (najbliższe 24 godziny)

TLE

ŚwieżeSource: CelesTrak SupGP

Epoka: Sep 14, 2026, 18:45 UTC

1 60518C 24149AL  26257.78145833  .00038479  00000+0  79475-3 0  2573
2 60518  97.3724 344.0911 0002981 338.8886 215.8832 15.45838123    10

Śledź FLOCK 4BE 1 w czasie rzeczywistym z AllMySat

Download on the App Store